User: anonymous   Login
Location: Fort Wayne
(41.1310°N, 85.1290°W)
Time: 03:47:12
(UTC-04:00)
Language:

Iridium 37 - Orbit

View from above orbital plane
View from above orbital plane
View from above satellite
View from above satellite

Ground track
Ground track

The orbit data is extracted from the following two-line orbital elements,

1 24968U 97056D   16208.56984405  .00000156  00000-0  48631-4 0  9992
2 24968  86.3963  95.0224 0002265  84.6729 275.4725 14.34223418985869
Epoch (UTC): 26 July 2016 13:40:34
Eccentricity: 0.0002265
inclination: 86.3963°
perigee height: 776 km
apogee height: 779 km
right ascension of ascending node: 95.0224°
argument of perigee: 84.6729°
revolutions per day: 14.34223418
mean anomaly at epoch: 275.4725°
orbit number at epoch: 98586

The dashed part of the orbit path shows where the satellite is in the earth's shadow,  

DLR